Time,TemperatureF,DewpointF,PressureIn,WindDirection,WindDirectionDegrees,WindSpeedMPH,WindSpeedGustMPH,Humidity,HourlyPrecipIn,Conditions,Clouds,dailyrainin,SolarRadiationWatts/m^2,SoftwareType,DateUTC
2013-03-12 00:00:00,38.1,33.7,29.83,WSW,246,6.0,8.0,84,0.00,,,1.21,0,Wunderground v.1.15,2013-03-12 04:00:00,
2013-03-12 00:02:00,38.0,33.6,29.83,WSW,254,10.0,10.0,84,0.00,,,0.00,0,Wunderground v.1.15,2013-03-12 04:02:00,
2013-03-12 00:06:00,37.8,33.4,29.83,WSW,246,13.0,13.0,84,0.00,,,0.00,0,Wunderground v.1.15,2013-03-12 04:06:00,
2013-03-12 00:09:00,37.7,33.3,29.83,WSW,248,7.0,13.0,84,0.00,,,0.00,0,Wunderground v.1.15,2013-03-12 04:09:00,
2013-03-12 00:14:00,37.6,33.2,29.83,WSW,250,5.0,9.0,84,0.00,,,0.00,0,Wunderground v.1.15,2013-03-12 04:14:00,
2013-03-12 00:20:00,37.4,33.0,29.83,WSW,255,8.0,8.0,84,0.00,,,0.00,0,Wunderground v.1.15,2013-03-12 04:20:00,
2013-03-12 00:25:00,37.4,33.3,29.83,West,260,5.0,14.0,85,0.00,,,0.00,0,Wunderground v.1.15,2013-03-12 04:25:00,
2013-03-12 00:30:00,37.4,33.0,29.83,WSW,250,8.0,9.0,84,0.00,,,0.00,0,Wunderground v.1.15,2013-03-12 04:30:00,
2013-03-12 00:35:00,37.4,33.0,29.84,WSW,252,8.0,13.0,84,0.00,,,0.00,0,Wunderground v.1.15,2013-03-12 04:35:00,
2013-03-12 00:41:00,37.2,32.8,29.84,WSW,258,4.0,8.0,84,0.00,,,0.00,0,Wunderground v.1.15,2013-03-12 04:41:00,
2013-03-12 00:46:00,37.1,32.7,29.84,WSW,239,6.0,9.0,84,0.00,,,0.00,0,Wunderground v.1.15,2013-03-12 04:46:00,
2013-03-12 00:52:00,37.2,32.8,29.84,WSW,256,5.0,8.0,84,0.00,,,0.00,0,Wunderground v.1.15,2013-03-12 04:52:00,
2013-03-12 00:58:00,37.2,32.8,29.84,West,259,8.0,11.0,84,0.00,,,0.00,0,Wunderground v.1.15,2013-03-12 04:58:00,
2013-03-12 01:04:00,37.3,32.9,29.84,West,262,10.0,10.0,84,0.00,,,0.00,0,Wunderground v.1.15,2013-03-12 05:04:00,
2013-03-12 01:09:00,37.3,32.9,29.84,WSW,253,6.0,13.0,84,0.00,,,0.00,0,Wunderground v.1.15,2013-03-12 05:09:00,
2013-03-12 01:15:00,37.3,32.9,29.85,West,261,10.0,12.0,84,0.00,,,0.00,0,Wunderground v.1.15,2013-03-12 05:15:00,
2013-03-12 01:20:00,37.3,32.6,29.85,West,266,11.0,11.0,83,0.00,,,0.00,0,Wunderground v.1.15,2013-03-12 05:20:00,
2013-03-12 01:26:00,37.2,32.8,29.85,WSW,249,10.0,11.0,84,0.00,,,0.00,0,Wunderground v.1.15,2013-03-12 05:26:00,
2013-03-12 01:32:00,37.0,32.3,29.85,WSW,256,17.0,17.0,83,0.00,,,0.00,0,Wunderground v.1.15,2013-03-12 05:32:00,
2013-03-12 01:38:00,36.8,31.8,29.85,WSW,250,14.0,18.0,82,0.00,,,0.00,0,Wunderground v.1.15,2013-03-12 05:38:00,
2013-03-12 01:43:00,36.7,31.7,29.85,West,273,6.0,12.0,82,0.00,,,0.00,0,Wunderground v.1.15,2013-03-12 05:43:00,
2013-03-12 01:48:00,36.6,31.6,29.86,WSW,256,6.0,12.0,82,0.00,,,0.00,0,Wunderground v.1.15,2013-03-12 05:48:00,
2013-03-12 01:53:00,36.5,31.8,29.86,WSW,254,8.0,13.0,83,0.00,,,0.00,0,Wunderground v.1.15,2013-03-12 05:53:00,
2013-03-12 01:58:00,36.4,31.7,29.86,WSW,256,5.0,13.0,83,0.00,,,0.00,0,Wunderground v.1.15,2013-03-12 05:58:00,
2013-03-12 02:03:00,36.4,31.7,29.86,WSW,247,9.0,13.0,83,0.00,,,0.00,0,Wunderground v.1.15,2013-03-12 06:03:00,
2013-03-12 02:08:00,36.3,31.6,29.86,WNW,284,9.0,15.0,83,0.00,,,0.00,0,Wunderground v.1.15,2013-03-12 06:08:00,
2013-03-12 02:13:00,36.3,31.6,29.86,WSW,252,10.0,17.0,83,0.00,,,0.00,0,Wunderground v.1.15,2013-03-12 06:13:00,
2013-03-12 02:18:00,36.3,31.6,29.86,SW,227,9.0,17.0,83,0.00,,,0.00,0,Wunderground v.1.15,2013-03-12 06:18:00,
2013-03-12 02:23:00,36.2,31.5,29.86,WSW,250,8.0,15.0,83,0.00,,,0.00,0,Wunderground v.1.15,2013-03-12 06:23:00,
2013-03-12 02:28:00,36.2,31.5,29.86,WSW,258,5.0,18.0,83,0.00,,,0.00,0,Wunderground v.1.15,2013-03-12 06:28:00,
2013-03-12 02:33:00,36.1,31.7,29.86,West,261,7.0,17.0,84,0.00,,,0.00,0,Wunderground v.1.15,2013-03-12 06:33:00,
2013-03-12 02:38:00,36.0,31.6,29.87,WSW,253,4.0,17.0,84,0.00,,,0.00,0,Wunderground v.1.15,2013-03-12 06:38:00,
2013-03-12 02:43:00,36.0,31.9,29.87,WSW,246,12.0,12.0,85,0.00,,,0.00,0,Wunderground v.1.15,2013-03-12 06:43:00,
2013-03-12 02:48:00,36.0,31.9,29.87,West,261,6.0,18.0,85,0.00,,,0.00,0,Wunderground v.1.15,2013-03-12 06:48:00,
2013-03-12 02:53:00,35.9,31.8,29.87,West,271,10.0,18.0,85,0.00,,,0.00,0,Wunderground v.1.15,2013-03-12 06:53:00,
2013-03-12 02:59:00,35.7,31.9,29.87,WSW,248,12.0,18.0,86,0.00,,,0.00,0,Wunderground v.1.15,2013-03-12 06:59:00,
2013-03-12 03:04:00,35.7,31.9,29.87,WSW,257,9.0,14.0,86,0.00,,,0.00,0,Wunderground v.1.15,2013-03-12 07:04:00,
2013-03-12 03:09:00,35.6,31.8,29.87,WSW,253,7.0,16.0,86,0.00,,,0.00,0,Wunderground v.1.15,2013-03-12 07:09:00,
2013-03-12 03:14:00,35.5,32.0,29.87,WSW,239,9.0,12.0,87,0.00,,,0.00,0,Wunderground v.1.15,2013-03-12 07:14:00,
2013-03-12 03:19:00,35.5,32.0,29.88,West,261,11.0,13.0,87,0.00,,,0.00,0,Wunderground v.1.15,2013-03-12 07:19:00,
2013-03-12 03:24:00,35.4,31.9,29.87,SW,234,8.0,13.0,87,0.00,,,0.00,0,Wunderground v.1.15,2013-03-12 07:24:00,
2013-03-12 03:29:00,35.3,31.8,29.88,WSW,252,9.0,13.0,87,0.00,,,0.00,0,Wunderground v.1.15,2013-03-12 07:29:00,
2013-03-12 03:34:00,35.2,31.7,29.88,West,261,7.0,10.0,87,0.00,,,0.00,0,Wunderground v.1.15,2013-03-12 07:34:00,
2013-03-12 03:39:00,35.2,32.0,29.88,WSW,246,8.0,14.0,88,0.00,,,0.00,0,Wunderground v.1.15,2013-03-12 07:39:00,
2013-03-12 03:44:00,35.2,32.0,29.88,West,259,10.0,17.0,88,0.00,,,0.00,0,Wunderground v.1.15,2013-03-12 07:44:00,
2013-03-12 03:49:00,35.1,31.9,29.88,West,262,5.0,17.0,88,0.00,,,0.00,0,Wunderground v.1.15,2013-03-12 07:49:00,
2013-03-12 03:54:00,35.0,31.8,29.89,West,260,3.0,14.0,88,0.00,,,0.00,0,Wunderground v.1.15,2013-03-12 07:54:00,
2013-03-12 03:59:00,34.6,31.7,29.89,WNW,286,4.0,14.0,89,0.00,,,0.00,0,Wunderground v.1.15,2013-03-12 07:59:00,
2013-03-12 04:04:00,34.1,31.5,29.89,West,265,3.0,14.0,90,0.00,,,0.00,0,Wunderground v.1.15,2013-03-12 08:04:00,
2013-03-12 04:09:00,33.8,31.5,29.89,WSW,252,6.0,14.0,91,0.00,,,0.00,0,Wunderground v.1.15,2013-03-12 08:09:00,
2013-03-12 04:14:00,33.6,31.5,29.89,West,259,3.0,14.0,92,0.00,,,0.00,0,Wunderground v.1.15,2013-03-12 08:14:00,
2013-03-12 04:19:00,33.6,31.5,29.89,West,281,4.0,14.0,92,0.00,,,0.00,0,Wunderground v.1.15,2013-03-12 08:19:00,
2013-03-12 04:24:00,33.6,31.5,29.89,WSW,240,4.0,10.0,92,0.00,,,0.00,0,Wunderground v.1.15,2013-03-12 08:24:00,
2013-03-12 04:29:00,33.7,31.6,29.89,West,260,8.0,8.0,92,0.00,,,0.00,0,Wunderground v.1.15,2013-03-12 08:29:00,
2013-03-12 04:35:00,33.7,31.6,29.89,West,264,6.0,11.0,92,0.00,,,0.00,0,Wunderground v.1.15,2013-03-12 08:35:00,
2013-03-12 04:40:00,33.8,31.5,29.89,WSW,247,5.0,7.0,91,0.00,,,0.00,0,Wunderground v.1.15,2013-03-12 08:40:00,
2013-03-12 04:45:00,33.8,31.5,29.89,WSW,252,5.0,7.0,91,0.00,,,0.00,0,Wunderground v.1.15,2013-03-12 08:45:00,
2013-03-12 04:50:00,33.8,31.2,29.89,West,270,4.0,5.0,90,0.00,,,0.00,0,Wunderground v.1.15,2013-03-12 08:50:00,
2013-03-12 04:55:00,33.7,30.8,29.88,WSW,248,5.0,9.0,89,0.00,,,0.00,0,Wunderground v.1.15,2013-03-12 08:55:00,
2013-03-12 05:00:00,33.7,30.5,29.88,West,273,3.0,4.0,88,0.00,,,0.00,0,Wunderground v.1.15,2013-03-12 09:00:00,
2013-03-12 05:05:00,33.8,30.3,29.89,West,278,4.0,9.0,87,0.00,,,0.00,0,Wunderground v.1.15,2013-03-12 09:05:00,
2013-03-12 05:10:00,33.9,29.9,29.89,WSW,254,6.0,6.0,85,0.00,,,0.00,0,Wunderground v.1.15,2013-03-12 09:10:00,
2013-03-12 05:15:00,34.0,30.0,29.89,West,269,6.0,10.0,85,0.00,,,0.00,0,Wunderground v.1.15,2013-03-12 09:15:00,
2013-03-12 05:20:00,34.0,29.7,29.89,West,259,8.0,8.0,84,0.00,,,0.00,0,Wunderground v.1.15,2013-03-12 09:20:00,
2013-03-12 05:25:00,34.0,29.7,29.89,West,264,8.0,14.0,84,0.00,,,0.00,0,Wunderground v.1.15,2013-03-12 09:25:00,
2013-03-12 05:30:00,34.0,29.7,29.89,West,267,7.0,7.0,84,0.00,,,0.00,0,Wunderground v.1.15,2013-03-12 09:30:00,
2013-03-12 05:35:00,34.0,30.0,29.90,WSW,254,4.0,9.0,85,0.00,,,0.00,0,Wunderground v.1.15,2013-03-12 09:35:00,
2013-03-12 05:40:00,34.0,30.0,29.89,WSW,249,1.0,4.0,85,0.00,,,0.00,0,Wunderground v.1.15,2013-03-12 09:40:00,
2013-03-12 05:45:00,33.9,30.2,29.90,WSW,242,4.0,7.0,86,0.00,,,0.00,0,Wunderground v.1.15,2013-03-12 09:45:00,
2013-03-12 05:50:00,33.9,30.2,29.90,WSW,250,4.0,8.0,86,0.00,,,0.00,0,Wunderground v.1.15,2013-03-12 09:50:00,
2013-03-12 05:55:00,33.9,30.2,29.90,WSW,240,6.0,9.0,86,0.00,,,0.00,0,Wunderground v.1.15,2013-03-12 09:55:00,
2013-03-12 06:00:00,33.9,30.2,29.91,SW,232,8.0,11.0,86,0.00,,,0.00,0,Wunderground v.1.15,2013-03-12 10:00:00,
2013-03-12 06:05:00,33.9,30.2,29.91,West,268,7.0,14.0,86,0.00,,,0.00,0,Wunderground v.1.15,2013-03-12 10:05:00,
2013-03-12 06:10:00,33.9,30.2,29.91,WSW,248,3.0,9.0,86,0.00,,,0.00,0,Wunderground v.1.15,2013-03-12 10:10:00,
2013-03-12 06:15:00,33.9,30.2,29.91,WSW,250,9.0,13.0,86,0.00,,,0.00,0,Wunderground v.1.15,2013-03-12 10:15:00,
2013-03-12 06:20:00,33.9,30.2,29.91,WSW,255,5.0,6.0,86,0.00,,,0.00,0,Wunderground v.1.15,2013-03-12 10:20:00,
2013-03-12 06:25:00,33.9,30.4,29.92,WSW,258,8.0,9.0,87,0.00,,,0.00,0,Wunderground v.1.15,2013-03-12 10:25:00,
2013-03-12 06:30:00,33.8,30.3,29.92,WSW,253,6.0,9.0,87,0.00,,,0.00,0,Wunderground v.1.15,2013-03-12 10:30:00,
2013-03-12 06:35:00,33.8,30.3,29.92,WSW,248,10.0,10.0,87,0.00,,,0.00,0,Wunderground v.1.15,2013-03-12 10:35:00,
2013-03-12 06:40:00,33.8,30.3,29.92,West,267,4.0,7.0,87,0.00,,,0.00,0,Wunderground v.1.15,2013-03-12 10:40:00,
2013-03-12 06:45:00,33.7,30.2,29.92,West,259,4.0,7.0,87,0.00,,,0.00,0,Wunderground v.1.15,2013-03-12 10:45:00,
2013-03-12 06:50:00,33.7,30.5,29.92,WSW,254,7.0,7.0,88,0.00,,,0.00,0,Wunderground v.1.15,2013-03-12 10:50:00,
2013-03-12 06:55:00,33.7,30.5,29.92,SW,229,9.0,12.0,88,0.00,,,0.00,0,Wunderground v.1.15,2013-03-12 10:55:00,
2013-03-12 07:00:00,33.7,30.5,29.92,West,259,9.0,9.0,88,0.00,,,0.00,0,Wunderground v.1.15,2013-03-12 11:00:00,
2013-03-12 07:05:00,33.7,30.2,29.92,SW,234,4.0,10.0,87,0.00,,,0.00,0,Wunderground v.1.15,2013-03-12 11:05:00,
2013-03-12 07:11:00,33.7,30.2,29.92,WSW,243,4.0,5.0,87,0.00,,,0.00,0,Wunderground v.1.15,2013-03-12 11:11:00,
2013-03-12 07:16:00,33.7,30.2,29.92,SW,234,4.0,7.0,87,0.00,,,0.00,0,Wunderground v.1.15,2013-03-12 11:16:00,
2013-03-12 07:21:00,33.7,30.2,29.92,WSW,250,6.0,7.0,87,0.00,,,0.00,0,Wunderground v.1.15,2013-03-12 11:21:00,
2013-03-12 07:26:00,33.7,30.2,29.93,WSW,252,3.0,9.0,87,0.00,,,0.00,0,Wunderground v.1.15,2013-03-12 11:26:00,
2013-03-12 07:31:00,33.7,30.2,29.93,WSW,251,5.0,7.0,87,0.00,,,0.00,0,Wunderground v.1.15,2013-03-12 11:31:00,
2013-03-12 07:36:00,33.7,30.2,29.93,WSW,246,6.0,9.0,87,0.00,,,0.00,0,Wunderground v.1.15,2013-03-12 11:36:00,
2013-03-12 07:41:00,33.7,30.2,29.93,SW,236,6.0,8.0,87,0.00,,,0.00,0,Wunderground v.1.15,2013-03-12 11:41:00,
2013-03-12 07:46:00,33.7,30.2,29.93,WSW,251,5.0,9.0,87,0.00,,,0.00,0,Wunderground v.1.15,2013-03-12 11:46:00,
2013-03-12 07:51:00,33.7,30.2,29.93,SW,232,9.0,9.0,87,0.00,,,0.00,0,Wunderground v.1.15,2013-03-12 11:51:00,
2013-03-12 07:57:00,33.8,30.1,29.93,SW,233,9.0,10.0,86,0.00,,,0.00,0,Wunderground v.1.15,2013-03-12 11:57:00,
2013-03-12 08:02:00,33.8,30.1,29.93,WSW,252,2.0,8.0,86,0.00,,,0.00,0,Wunderground v.1.15,2013-03-12 12:02:00,
2013-03-12 08:07:00,33.7,30.0,29.93,WSW,255,7.0,10.0,86,0.00,,,0.00,0,Wunderground v.1.15,2013-03-12 12:07:00,
2013-03-12 08:12:00,33.7,30.0,29.93,WSW,249,5.0,9.0,86,0.00,,,0.00,0,Wunderground v.1.15,2013-03-12 12:12:00,
2013-03-12 08:17:00,33.7,30.2,29.94,WSW,246,7.0,9.0,87,0.00,,,0.00,0,Wunderground v.1.15,2013-03-12 12:17:00,
2013-03-12 08:22:00,33.7,30.0,29.94,WSW,248,4.0,7.0,86,0.00,,,0.00,0,Wunderground v.1.15,2013-03-12 12:22:00,
2013-03-12 08:27:00,33.8,30.3,29.95,WSW,254,5.0,11.0,87,0.00,,,0.00,5,Wunderground v.1.15,2013-03-12 12:27:00,
2013-03-12 08:32:00,33.8,30.3,29.95,WSW,247,3.0,11.0,87,0.00,,,0.00,5,Wunderground v.1.15,2013-03-12 12:32:00,
2013-03-12 08:37:00,33.8,30.3,29.95,WSW,257,5.0,12.0,87,0.00,,,0.00,7,Wunderground v.1.15,2013-03-12 12:37:00,
2013-03-12 08:43:00,33.8,30.3,29.95,WSW,249,4.0,13.0,87,0.00,,,0.00,9,Wunderground v.1.15,2013-03-12 12:43:00,
2013-03-12 08:48:00,33.8,30.1,29.95,West,262,7.0,14.0,86,0.00,,,0.00,12,Wunderground v.1.15,2013-03-12 12:48:00,
2013-03-12 08:53:00,33.8,30.1,29.95,West,267,7.0,13.0,86,0.00,,,0.00,12,Wunderground v.1.15,2013-03-12 12:53:00,
2013-03-12 08:58:00,33.8,30.1,29.95,West,259,7.0,13.0,86,0.00,,,0.00,18,Wunderground v.1.15,2013-03-12 12:58:00,
2013-03-12 09:03:00,33.8,30.1,29.95,WSW,254,6.0,11.0,86,0.00,,,0.00,25,Wunderground v.1.15,2013-03-12 13:03:00,
2013-03-12 09:09:00,33.9,29.9,29.96,WSW,246,6.0,11.0,85,0.00,,,0.00,21,Wunderground v.1.15,2013-03-12 13:09:00,
2013-03-12 09:13:00,33.9,29.9,29.97,West,262,6.0,13.0,85,0.00,,,0.00,23,Wunderground v.1.15,2013-03-12 13:13:00,
2013-03-12 09:19:00,33.9,29.9,29.96,West,264,10.0,13.0,85,0.00,,,0.00,32,Wunderground v.1.15,2013-03-12 13:19:00,
2013-03-12 09:24:00,33.9,29.9,29.97,West,267,1.0,12.0,85,0.00,,,0.00,32,Wunderground v.1.15,2013-03-12 13:24:00,
2013-03-12 09:29:00,34.0,30.0,29.97,WSW,253,8.0,12.0,85,0.00,,,0.00,33,Wunderground v.1.15,2013-03-12 13:29:00,
2013-03-12 09:34:00,34.0,30.0,29.98,WSW,257,9.0,14.0,85,0.00,,,0.00,53,Wunderground v.1.15,2013-03-12 13:34:00,
2013-03-12 09:39:00,34.0,29.7,29.97,West,260,7.0,14.0,84,0.00,,,0.00,65,Wunderground v.1.15,2013-03-12 13:39:00,
2013-03-12 09:44:00,34.1,29.8,29.97,WNW,290,6.0,12.0,84,0.00,,,0.00,70,Wunderground v.1.15,2013-03-12 13:44:00,
2013-03-12 09:49:00,34.1,29.8,29.97,West,279,9.0,14.0,84,0.00,,,0.00,95,Wunderground v.1.15,2013-03-12 13:49:00,
2013-03-12 09:54:00,34.3,30.0,29.98,WSW,250,7.0,12.0,84,0.00,,,0.00,97,Wunderground v.1.15,2013-03-12 13:54:00,
2013-03-12 09:59:00,34.4,30.1,29.98,WSW,245,7.0,14.0,84,0.00,,,0.00,100,Wunderground v.1.15,2013-03-12 13:59:00,
2013-03-12 10:04:00,34.6,30.3,29.97,WSW,241,8.0,10.0,84,0.00,,,0.00,104,Wunderground v.1.15,2013-03-12 14:04:00,
2013-03-12 10:10:00,34.7,30.4,29.97,WSW,248,1.0,6.0,84,0.00,,,0.00,121,Wunderground v.1.15,2013-03-12 14:10:00,
2013-03-12 10:15:00,34.7,30.1,29.97,WSW,250,6.0,12.0,83,0.00,,,0.00,116,Wunderground v.1.15,2013-03-12 14:15:00,
2013-03-12 10:20:00,34.8,29.9,29.97,West,260,5.0,7.0,82,0.00,,,0.00,100,Wunderground v.1.15,2013-03-12 14:20:00,
2013-03-12 10:25:00,34.9,30.0,29.97,WSW,240,6.0,12.0,82,0.00,,,0.00,95,Wunderground v.1.15,2013-03-12 14:25:00,
2013-03-12 10:30:00,34.8,29.9,29.98,WSW,257,8.0,8.0,82,0.00,,,0.00,114,Wunderground v.1.15,2013-03-12 14:30:00,
2013-03-12 10:35:00,34.8,29.6,29.98,WSW,251,6.0,11.0,81,0.00,,,0.00,111,Wunderground v.1.15,2013-03-12 14:35:00,
2013-03-12 10:41:00,35.0,29.8,29.98,West,259,9.0,11.0,81,0.00,,,0.00,105,Wunderground v.1.15,2013-03-12 14:41:00,
2013-03-12 10:46:00,34.9,29.7,29.98,WSW,256,8.0,15.0,81,0.00,,,0.00,120,Wunderground v.1.15,2013-03-12 14:46:00,
2013-03-12 10:51:00,34.9,30.0,29.99,WNW,288,5.0,14.0,82,0.00,,,0.00,102,Wunderground v.1.15,2013-03-12 14:51:00,
2013-03-12 10:56:00,34.8,29.6,29.99,WSW,248,5.0,14.0,81,0.00,,,0.00,95,Wunderground v.1.15,2013-03-12 14:56:00,
2013-03-12 11:01:00,34.7,29.8,29.98,SW,229,6.0,8.0,82,0.00,,,0.00,88,Wunderground v.1.15,2013-03-12 15:01:00,
2013-03-12 11:06:00,34.6,29.7,29.99,West,267,6.0,14.0,82,0.00,,,0.00,97,Wunderground v.1.15,2013-03-12 15:06:00,
2013-03-12 11:11:00,34.6,29.7,29.99,WSW,242,6.0,10.0,82,0.00,,,0.00,132,Wunderground v.1.15,2013-03-12 15:11:00,
2013-03-12 11:16:00,34.7,29.8,29.98,WSW,256,4.0,12.0,82,0.00,,,0.00,139,Wunderground v.1.15,2013-03-12 15:16:00,
2013-03-12 11:21:00,34.8,29.9,29.98,WSW,252,9.0,9.0,82,0.00,,,0.00,227,Wunderground v.1.15,2013-03-12 15:21:00,
2013-03-12 11:26:00,35.2,30.0,29.98,WSW,248,5.0,11.0,81,0.00,,,0.00,183,Wunderground v.1.15,2013-03-12 15:26:00,
2013-03-12 11:31:00,35.2,30.0,29.98,WSW,240,4.0,11.0,81,0.00,,,0.00,137,Wunderground v.1.15,2013-03-12 15:31:00,
2013-03-12 11:36:00,35.2,29.6,29.98,WSW,248,9.0,11.0,80,0.00,,,0.00,109,Wunderground v.1.15,2013-03-12 15:36:00,
2013-03-12 11:41:00,35.0,29.5,29.98,WSW,257,8.0,10.0,80,0.00,,,0.00,84,Wunderground v.1.15,2013-03-12 15:41:00,
2013-03-12 11:46:00,34.9,29.7,29.98,WSW,240,7.0,11.0,81,0.00,,,0.00,83,Wunderground v.1.15,2013-03-12 15:46:00,
2013-03-12 11:52:00,34.8,29.6,29.98,WSW,246,5.0,10.0,81,0.00,,,0.00,81,Wunderground v.1.15,2013-03-12 15:52:00,
2013-03-12 11:57:00,34.8,29.6,29.98,SW,236,6.0,10.0,81,0.00,,,0.00,100,Wunderground v.1.15,2013-03-12 15:57:00,
2013-03-12 12:02:00,34.8,29.9,29.98,WSW,242,6.0,11.0,82,0.00,,,0.00,83,Wunderground v.1.15,2013-03-12 16:02:00,
2013-03-12 12:07:00,34.8,29.9,29.98,WSW,243,8.0,11.0,82,0.00,,,0.00,77,Wunderground v.1.15,2013-03-12 16:07:00,
2013-03-12 12:12:00,34.8,29.9,29.98,WSW,244,7.0,10.0,82,0.00,,,0.00,67,Wunderground v.1.15,2013-03-12 16:12:00,
2013-03-12 12:17:00,34.7,30.1,29.99,WSW,242,9.0,11.0,83,0.00,,,0.00,65,Wunderground v.1.15,2013-03-12 16:17:00,
2013-03-12 12:22:00,34.7,30.1,29.99,WSW,253,7.0,10.0,83,0.00,,,0.00,62,Wunderground v.1.15,2013-03-12 16:22:00,
2013-03-12 12:27:00,34.7,30.1,29.99,WSW,254,6.0,10.0,83,0.00,,,0.00,77,Wunderground v.1.15,2013-03-12 16:27:00,
2013-03-12 12:32:00,34.8,30.2,30.00,WSW,251,9.0,10.0,83,0.00,,,0.00,98,Wunderground v.1.15,2013-03-12 16:32:00,
2013-03-12 12:37:00,35.1,30.5,30.00,WSW,254,6.0,10.0,83,0.00,,,0.00,118,Wunderground v.1.15,2013-03-12 16:37:00,
2013-03-12 12:42:00,35.3,30.7,29.99,West,269,8.0,11.0,83,0.00,,,0.00,83,Wunderground v.1.15,2013-03-12 16:42:00,
2013-03-12 12:47:00,35.3,30.4,29.99,WSW,242,5.0,11.0,82,0.00,,,0.00,74,Wunderground v.1.15,2013-03-12 16:47:00,
2013-03-12 12:52:00,35.3,30.4,29.99,WSW,248,7.0,11.0,82,0.00,,,0.00,76,Wunderground v.1.15,2013-03-12 16:52:00,
2013-03-12 12:57:00,35.4,30.5,30.00,WSW,253,9.0,11.0,82,0.00,,,0.00,86,Wunderground v.1.15,2013-03-12 16:57:00,
2013-03-12 13:02:00,35.5,29.9,30.01,WSW,242,6.0,12.0,80,0.00,,,0.00,76,Wunderground v.1.15,2013-03-12 17:02:00,
2013-03-12 13:07:00,35.5,29.9,30.01,WSW,252,8.0,16.0,80,0.00,,,0.00,74,Wunderground v.1.15,2013-03-12 17:07:00,
2013-03-12 13:13:00,35.5,29.9,30.00,WSW,251,11.0,16.0,80,0.00,,,0.00,86,Wunderground v.1.15,2013-03-12 17:13:00,
2013-03-12 13:18:00,35.3,29.4,30.00,WSW,257,12.0,16.0,79,0.00,,,0.00,88,Wunderground v.1.15,2013-03-12 17:18:00,
2013-03-12 13:23:00,35.5,29.9,30.00,WSW,258,5.0,13.0,80,0.00,,,0.00,121,Wunderground v.1.15,2013-03-12 17:23:00,
2013-03-12 13:28:00,35.7,29.8,30.00,WSW,252,10.0,16.0,79,0.00,,,0.00,185,Wunderground v.1.15,2013-03-12 17:28:00,
2013-03-12 13:34:00,35.9,30.0,30.00,WSW,255,5.0,16.0,79,0.00,,,0.00,213,Wunderground v.1.15,2013-03-12 17:34:00,
2013-03-12 13:39:00,36.3,30.1,30.00,WSW,255,4.0,16.0,78,0.00,,,0.00,181,Wunderground v.1.15,2013-03-12 17:39:00,
2013-03-12 13:43:00,36.5,30.6,30.00,West,261,10.0,11.0,79,0.00,,,0.00,111,Wunderground v.1.15,2013-03-12 17:43:00,
2013-03-12 13:49:00,36.1,29.6,30.00,WSW,242,6.0,13.0,77,0.00,,,0.00,88,Wunderground v.1.15,2013-03-12 17:49:00,
2013-03-12 13:54:00,36.0,29.8,30.00,WSW,244,5.0,12.0,78,0.00,,,0.00,90,Wunderground v.1.15,2013-03-12 17:54:00,
2013-03-12 13:59:00,36.0,30.1,30.00,SW,229,10.0,12.0,79,0.00,,,0.00,83,Wunderground v.1.15,2013-03-12 17:59:00,
2013-03-12 14:04:00,36.0,30.1,30.00,WSW,247,6.0,10.0,79,0.00,,,0.00,125,Wunderground v.1.15,2013-03-12 18:04:00,
2013-03-12 14:09:00,36.0,30.1,30.00,SW,234,5.0,10.0,79,0.00,,,0.00,132,Wunderground v.1.15,2013-03-12 18:09:00,
2013-03-12 14:14:00,36.2,30.0,30.00,SW,230,4.0,11.0,78,0.00,,,0.00,200,Wunderground v.1.15,2013-03-12 18:14:00,
2013-03-12 14:19:00,36.5,30.6,30.00,WSW,239,12.0,13.0,79,0.00,,,0.00,167,Wunderground v.1.15,2013-03-12 18:19:00,
2013-03-12 14:24:00,36.4,30.2,29.99,SW,223,8.0,15.0,78,0.00,,,0.00,102,Wunderground v.1.15,2013-03-12 18:24:00,
2013-03-12 14:29:00,36.3,29.8,29.99,SW,232,9.0,17.0,77,0.00,,,0.00,97,Wunderground v.1.15,2013-03-12 18:29:00,
2013-03-12 14:34:00,36.1,29.6,29.99,WSW,240,9.0,17.0,77,0.00,,,0.00,128,Wunderground v.1.15,2013-03-12 18:34:00,
2013-03-12 14:39:00,36.4,30.5,29.99,West,271,5.0,17.0,79,0.00,,,0.00,142,Wunderground v.1.15,2013-03-12 18:39:00,
2013-03-12 14:44:00,36.5,30.6,29.99,WSW,239,6.0,12.0,79,0.00,,,0.00,204,Wunderground v.1.15,2013-03-12 18:44:00,
2013-03-12 14:49:00,36.9,31.0,30.00,West,263,11.0,13.0,79,0.00,,,0.00,295,Wunderground v.1.15,2013-03-12 18:49:00,
2013-03-12 14:54:00,37.0,30.8,29.99,WSW,248,11.0,14.0,78,0.00,,,0.00,186,Wunderground v.1.15,2013-03-12 18:54:00,
2013-03-12 14:59:00,36.9,30.4,29.99,WSW,244,9.0,14.0,77,0.00,,,0.00,102,Wunderground v.1.15,2013-03-12 18:59:00,
2013-03-12 15:04:00,36.8,30.6,29.99,WSW,257,2.0,12.0,78,0.00,,,0.00,262,Wunderground v.1.15,2013-03-12 19:04:00,
2013-03-12 15:09:00,37.4,31.5,29.98,WSW,253,6.0,12.0,79,0.00,,,0.00,276,Wunderground v.1.15,2013-03-12 19:09:00,
2013-03-12 15:14:00,37.5,30.9,29.98,WSW,248,10.0,14.0,77,0.00,,,0.00,144,Wunderground v.1.15,2013-03-12 19:14:00,
2013-03-12 15:19:00,37.2,30.7,29.98,WSW,244,8.0,15.0,77,0.00,,,0.00,218,Wunderground v.1.15,2013-03-12 19:19:00,
2013-03-12 15:25:00,37.5,30.9,29.98,SW,236,11.0,13.0,77,0.00,,,0.00,209,Wunderground v.1.15,2013-03-12 19:25:00,
2013-03-12 15:30:00,37.5,30.9,29.98,SW,228,8.0,9.0,77,0.00,,,0.00,214,Wunderground v.1.15,2013-03-12 19:30:00,
2013-03-12 15:35:00,37.6,31.0,29.98,WSW,248,6.0,15.0,77,0.00,,,0.00,193,Wunderground v.1.15,2013-03-12 19:35:00,
2013-03-12 15:40:00,37.7,31.1,29.98,WSW,238,6.0,9.0,77,0.00,,,0.00,171,Wunderground v.1.15,2013-03-12 19:40:00,
2013-03-12 15:45:00,37.6,30.7,29.98,SW,227,15.0,18.0,76,0.00,,,0.00,107,Wunderground v.1.15,2013-03-12 19:45:00,
2013-03-12 15:50:00,37.5,30.9,29.98,WSW,258,9.0,10.0,77,0.00,,,0.00,165,Wunderground v.1.15,2013-03-12 19:50:00,
2013-03-12 15:55:00,37.7,30.8,29.98,SW,223,10.0,15.0,76,0.00,,,0.00,229,Wunderground v.1.15,2013-03-12 19:55:00,
2013-03-12 16:00:00,37.9,31.0,29.97,WSW,238,9.0,10.0,76,0.00,,,0.00,179,Wunderground v.1.15,2013-03-12 20:00:00,
2013-03-12 16:05:00,37.9,31.0,29.97,SW,228,6.0,11.0,76,0.00,,,0.00,204,Wunderground v.1.15,2013-03-12 20:05:00,
2013-03-12 16:10:00,38.0,31.1,29.98,WSW,256,9.0,10.0,76,0.00,,,0.00,218,Wunderground v.1.15,2013-03-12 20:10:00,
2013-03-12 16:15:00,38.2,31.0,29.98,West,269,8.0,13.0,75,0.00,,,0.00,223,Wunderground v.1.15,2013-03-12 20:15:00,
2013-03-12 16:20:00,38.6,31.0,29.98,WSW,252,8.0,13.0,74,0.00,,,0.00,186,Wunderground v.1.15,2013-03-12 20:20:00,
2013-03-12 16:25:00,38.4,30.5,29.98,West,275,3.0,14.0,73,0.00,,,0.00,130,Wunderground v.1.15,2013-03-12 20:25:00,
2013-03-12 16:30:00,38.5,31.3,29.99,WSW,246,11.0,11.0,75,0.00,,,0.00,141,Wunderground v.1.15,2013-03-12 20:30:00,
2013-03-12 16:35:00,38.5,30.6,29.99,WSW,246,9.0,11.0,73,0.00,,,0.00,144,Wunderground v.1.15,2013-03-12 20:35:00,
2013-03-12 16:40:00,38.7,30.8,29.99,WSW,251,6.0,9.0,73,0.00,,,0.00,144,Wunderground v.1.15,2013-03-12 20:40:00,
2013-03-12 16:45:00,38.8,30.2,29.99,WSW,242,13.0,14.0,71,0.00,,,0.00,146,Wunderground v.1.15,2013-03-12 20:45:00,
2013-03-12 16:50:00,38.9,30.6,29.99,WSW,255,7.0,9.0,72,0.00,,,0.00,128,Wunderground v.1.15,2013-03-12 20:50:00,
2013-03-12 16:55:00,39.0,30.4,29.99,WSW,252,8.0,18.0,71,0.00,,,0.00,134,Wunderground v.1.15,2013-03-12 20:55:00,
2013-03-12 17:00:00,39.2,30.9,29.99,WSW,244,10.0,11.0,72,0.00,,,0.00,176,Wunderground v.1.15,2013-03-12 21:00:00,
2013-03-12 17:05:00,39.6,31.0,29.99,WSW,250,6.0,11.0,71,0.00,,,0.00,211,Wunderground v.1.15,2013-03-12 21:05:00,
2013-03-12 17:10:00,40.0,31.4,29.98,SW,227,10.0,10.0,71,0.00,,,0.00,214,Wunderground v.1.15,2013-03-12 21:10:00,
2013-03-12 17:15:00,40.0,30.6,29.98,WSW,242,4.0,12.0,69,0.00,,,0.00,207,Wunderground v.1.15,2013-03-12 21:15:00,
2013-03-12 17:20:00,40.4,31.4,29.98,SW,233,8.0,10.0,70,0.00,,,0.00,243,Wunderground v.1.15,2013-03-12 21:20:00,
2013-03-12 17:25:00,40.5,31.1,29.98,SW,234,8.0,11.0,69,0.00,,,0.00,149,Wunderground v.1.15,2013-03-12 21:25:00,
2013-03-12 17:30:00,40.4,31.4,29.98,WSW,252,8.0,10.0,70,0.00,,,0.00,128,Wunderground v.1.15,2013-03-12 21:30:00,
2013-03-12 17:35:00,40.4,31.0,29.98,WSW,248,6.0,16.0,69,0.00,,,0.00,91,Wunderground v.1.15,2013-03-12 21:35:00,
2013-03-12 17:41:00,40.3,30.9,29.98,WSW,256,7.0,8.0,69,0.00,,,0.00,114,Wunderground v.1.15,2013-03-12 21:41:00,
2013-03-12 17:46:00,40.3,30.6,29.98,WSW,251,5.0,15.0,68,0.00,,,0.00,109,Wunderground v.1.15,2013-03-12 21:46:00,
2013-03-12 17:51:00,40.4,31.0,29.98,WSW,250,10.0,12.0,69,0.00,,,0.00,148,Wunderground v.1.15,2013-03-12 21:51:00,
2013-03-12 17:56:00,40.6,30.9,29.98,West,263,5.0,13.0,68,0.00,,,0.00,156,Wunderground v.1.15,2013-03-12 21:56:00,
2013-03-12 18:01:00,40.7,31.3,29.98,WSW,257,9.0,10.0,69,0.00,,,0.00,134,Wunderground v.1.15,2013-03-12 22:01:00,
2013-03-12 18:06:00,40.9,31.5,29.98,WSW,244,8.0,10.0,69,0.00,,,0.00,109,Wunderground v.1.15,2013-03-12 22:06:00,
2013-03-12 18:11:00,40.9,31.5,29.98,SW,233,12.0,12.0,69,0.00,,,0.00,160,Wunderground v.1.15,2013-03-12 22:11:00,
2013-03-12 18:16:00,40.9,31.1,29.98,WSW,258,7.0,12.0,68,0.00,,,0.00,90,Wunderground v.1.15,2013-03-12 22:16:00,
2013-03-12 18:21:00,40.8,31.1,29.98,WSW,250,5.0,11.0,68,0.00,,,0.00,79,Wunderground v.1.15,2013-03-12 22:21:00,
2013-03-12 18:26:00,40.7,31.3,29.98,WSW,248,5.0,11.0,69,0.00,,,0.00,67,Wunderground v.1.15,2013-03-12 22:26:00,
2013-03-12 18:31:00,40.7,31.0,29.98,WSW,244,4.0,7.0,68,0.00,,,0.00,49,Wunderground v.1.15,2013-03-12 22:31:00,
2013-03-12 18:36:00,40.6,31.2,29.98,WSW,257,3.0,7.0,69,0.00,,,0.00,40,Wunderground v.1.15,2013-03-12 22:36:00,
2013-03-12 18:41:00,40.5,31.5,29.98,WSW,251,4.0,4.0,70,0.00,,,0.00,33,Wunderground v.1.15,2013-03-12 22:41:00,
2013-03-12 18:47:00,40.4,31.0,29.99,WSW,254,4.0,9.0,69,0.00,,,0.00,33,Wunderground v.1.15,2013-03-12 22:47:00,
2013-03-12 18:53:00,40.4,31.4,29.99,SW,235,2.0,4.0,70,0.00,,,0.00,25,Wunderground v.1.15,2013-03-12 22:53:00,
2013-03-12 18:58:00,40.4,31.4,29.99,WSW,240,2.0,6.0,70,0.00,,,0.00,23,Wunderground v.1.15,2013-03-12 22:58:00,
2013-03-12 19:03:00,40.4,31.4,29.99,WSW,240,2.0,6.0,70,0.00,,,0.00,23,Wunderground v.1.15,2013-03-12 23:03:00,
2013-03-12 19:08:00,40.3,31.6,29.99,WSW,240,0.0,6.0,71,0.00,,,0.00,23,Wunderground v.1.15,2013-03-12 23:08:00,
2013-03-12 19:14:00,40.1,31.8,29.99,WSW,240,0.0,2.0,72,0.00,,,0.00,19,Wunderground v.1.15,2013-03-12 23:14:00,
2013-03-12 19:19:00,39.8,31.5,29.99,WSW,240,1.0,3.0,72,0.00,,,0.00,9,Wunderground v.1.15,2013-03-12 23:19:00,
2013-03-12 19:24:00,39.5,31.2,29.99,WSW,240,1.0,4.0,72,0.00,,,0.00,5,Wunderground v.1.15,2013-03-12 23:24:00,
2013-03-12 19:29:00,39.4,31.1,29.99,WSW,240,1.0,4.0,72,0.00,,,0.00,0,Wunderground v.1.15,2013-03-12 23:29:00,
2013-03-12 19:34:00,39.5,31.2,29.99,WSW,240,1.0,3.0,72,0.00,,,0.00,0,Wunderground v.1.15,2013-03-12 23:34:00,
2013-03-12 19:39:00,39.5,31.6,29.99,WSW,240,0.0,3.0,73,0.00,,,0.00,0,Wunderground v.1.15,2013-03-12 23:39:00,
2013-03-12 19:44:00,39.4,31.5,29.99,WSW,240,0.0,1.0,73,0.00,,,0.00,0,Wunderground v.1.15,2013-03-12 23:44:00,
2013-03-12 19:49:00,39.2,31.6,29.99,WSW,240,0.0,1.0,74,0.00,,,0.00,0,Wunderground v.1.15,2013-03-12 23:49:00,
2013-03-12 19:54:00,39.1,31.8,29.99,WSW,240,0.0,0.0,75,0.00,,,0.00,0,Wunderground v.1.15,2013-03-12 23:54:00,
2013-03-12 19:59:00,39.0,31.7,30.00,WSW,240,0.0,1.0,75,0.00,,,0.00,0,Wunderground v.1.15,2013-03-12 23:59:00,
2013-03-12 20:04:00,39.0,31.4,30.00,WSW,240,0.0,0.0,74,0.00,,,0.00,0,Wunderground v.1.15,2013-03-13 00:04:00,
2013-03-12 20:09:00,39.3,31.0,30.00,West,267,3.0,8.0,72,0.00,,,0.00,0,Wunderground v.1.15,2013-03-13 00:09:00,
2013-03-12 20:14:00,39.6,31.0,30.00,WSW,256,4.0,12.0,71,0.00,,,0.00,0,Wunderground v.1.15,2013-03-13 00:14:00,
2013-03-12 20:19:00,39.9,30.9,30.01,WNW,284,6.0,12.0,70,0.00,,,0.00,0,Wunderground v.1.15,2013-03-13 00:19:00,
2013-03-12 20:24:00,39.9,31.3,30.01,WSW,257,4.0,8.0,71,0.00,,,0.00,0,Wunderground v.1.15,2013-03-13 00:24:00,
2013-03-12 20:29:00,39.6,31.3,30.02,WSW,251,2.0,12.0,72,0.00,,,0.00,0,Wunderground v.1.15,2013-03-13 00:29:00,
2013-03-12 20:34:00,39.1,31.8,30.02,West,268,2.0,12.0,75,0.00,,,0.01,0,Wunderground v.1.15,2013-03-13 00:34:00,
2013-03-12 20:39:00,38.5,31.9,30.02,West,267,5.0,12.0,77,0.00,,,0.01,0,Wunderground v.1.15,2013-03-13 00:39:00,
2013-03-12 20:44:00,38.1,31.8,30.02,SW,215,3.0,11.0,78,0.00,,,0.01,0,Wunderground v.1.15,2013-03-13 00:44:00,
2013-03-12 20:49:00,37.7,31.8,30.02,SW,228,8.0,11.0,79,0.00,,,0.01,0,Wunderground v.1.15,2013-03-13 00:49:00,
2013-03-12 20:54:00,37.6,32.0,30.02,West,260,10.0,14.0,80,0.00,,,0.01,0,Wunderground v.1.15,2013-03-13 00:54:00,
2013-03-12 20:59:00,37.5,31.3,30.02,WSW,248,4.0,15.0,78,0.00,,,0.01,0,Wunderground v.1.15,2013-03-13 00:59:00,
2013-03-12 21:04:00,37.6,31.4,30.02,WSW,251,4.0,12.0,78,0.00,,,0.01,0,Wunderground v.1.15,2013-03-13 01:04:00,
2013-03-12 21:09:00,37.5,31.6,30.03,WSW,246,4.0,12.0,79,0.00,,,0.01,0,Wunderground v.1.15,2013-03-13 01:09:00,
2013-03-12 21:14:00,37.3,31.7,30.03,West,267,0.0,6.0,80,0.00,,,0.01,0,Wunderground v.1.15,2013-03-13 01:14:00,
2013-03-12 21:20:00,37.1,31.8,30.03,West,267,0.0,1.0,81,0.00,,,0.01,0,Wunderground v.1.15,2013-03-13 01:20:00,
2013-03-12 21:25:00,37.0,31.7,30.03,West,267,0.0,1.0,81,0.00,,,0.01,0,Wunderground v.1.15,2013-03-13 01:25:00,
2013-03-12 21:30:00,36.8,31.5,30.02,West,267,2.0,2.0,81,0.00,,,0.01,0,Wunderground v.1.15,2013-03-13 01:30:00,
2013-03-12 21:35:00,36.5,30.9,30.02,West,267,0.0,2.0,80,0.00,,,0.01,0,Wunderground v.1.15,2013-03-13 01:35:00,
2013-03-12 21:40:00,36.4,30.5,30.02,West,267,1.0,1.0,79,0.00,,,0.01,0,Wunderground v.1.15,2013-03-13 01:40:00,
2013-03-12 21:45:00,36.3,30.7,30.02,West,267,1.0,3.0,80,0.00,,,0.01,0,Wunderground v.1.15,2013-03-13 01:45:00,
2013-03-12 21:50:00,35.9,30.3,30.02,West,267,0.0,1.0,80,0.00,,,0.01,0,Wunderground v.1.15,2013-03-13 01:50:00,
2013-03-12 21:55:00,35.5,30.2,30.02,West,267,0.0,2.0,81,0.00,,,0.01,0,Wunderground v.1.15,2013-03-13 01:55:00,
2013-03-12 22:00:00,35.1,30.2,30.02,West,267,0.0,0.0,82,0.00,,,0.01,0,Wunderground v.1.15,2013-03-13 02:00:00,
2013-03-12 22:05:00,34.8,29.9,30.02,West,267,0.0,0.0,82,0.00,,,0.01,0,Wunderground v.1.15,2013-03-13 02:05:00,
2013-03-12 22:10:00,34.5,29.9,30.02,West,267,0.0,0.0,83,0.00,,,0.01,0,Wunderground v.1.15,2013-03-13 02:10:00,
2013-03-12 22:15:00,34.3,30.0,30.02,West,267,0.0,1.0,84,0.00,,,0.01,0,Wunderground v.1.15,2013-03-13 02:15:00,
2013-03-12 22:20:00,34.1,30.1,30.02,West,267,0.0,0.0,85,0.00,,,0.01,0,Wunderground v.1.15,2013-03-13 02:20:00,
2013-03-12 22:25:00,33.9,30.2,30.02,West,267,0.0,0.0,86,0.00,,,0.01,0,Wunderground v.1.15,2013-03-13 02:25:00,
2013-03-12 22:30:00,33.7,30.0,30.02,West,267,0.0,0.0,86,0.00,,,0.01,0,Wunderground v.1.15,2013-03-13 02:30:00,
2013-03-12 22:35:00,32.7,29.0,30.02,West,267,0.0,0.0,86,0.00,,,0.01,0,Wunderground v.1.15,2013-03-13 02:35:00,
2013-03-12 22:40:00,32.0,28.8,30.02,West,267,0.0,0.0,88,0.00,,,0.01,0,Wunderground v.1.15,2013-03-13 02:40:00,
2013-03-12 22:45:00,31.6,28.7,30.02,West,267,0.0,0.0,89,0.00,,,0.01,0,Wunderground v.1.15,2013-03-13 02:45:00,
2013-03-12 22:51:00,31.4,28.8,30.02,West,267,0.0,0.0,90,0.00,,,0.01,0,Wunderground v.1.15,2013-03-13 02:51:00,
2013-03-12 22:56:00,31.5,29.2,30.02,West,267,0.0,0.0,91,0.00,,,0.01,0,Wunderground v.1.15,2013-03-13 02:56:00,
2013-03-12 23:02:00,31.5,29.2,30.02,West,267,0.0,0.0,91,0.00,,,0.01,0,Wunderground v.1.15,2013-03-13 03:02:00,
2013-03-12 23:07:00,31.1,28.8,30.02,West,267,0.0,0.0,91,0.00,,,0.01,0,Wunderground v.1.15,2013-03-13 03:07:00,
2013-03-12 23:12:00,31.2,29.1,30.03,West,267,0.0,0.0,92,0.00,,,0.01,0,Wunderground v.1.15,2013-03-13 03:12:00,
2013-03-12 23:17:00,31.2,29.1,30.03,West,267,1.0,1.0,92,0.00,,,0.01,0,Wunderground v.1.15,2013-03-13 03:17:00,
2013-03-12 23:22:00,31.9,30.1,30.04,West,262,8.0,11.0,93,0.00,,,0.01,0,Wunderground v.1.15,2013-03-13 03:22:00,
2013-03-12 23:27:00,33.0,31.2,30.05,West,261,14.0,26.0,93,0.00,,,0.01,0,Wunderground v.1.15,2013-03-13 03:27:00,
2013-03-12 23:32:00,33.8,31.5,30.05,West,261,1.0,13.0,91,0.00,,,0.01,0,Wunderground v.1.15,2013-03-13 03:32:00,
2013-03-12 23:37:00,34.1,31.2,30.05,West,261,5.0,15.0,89,0.00,,,0.01,0,Wunderground v.1.15,2013-03-13 03:37:00,
2013-03-12 23:42:00,33.9,31.0,30.05,West,276,7.0,15.0,89,0.00,,,0.01,0,Wunderground v.1.15,2013-03-13 03:42:00,
2013-03-12 23:47:00,33.6,31.0,30.05,WSW,254,8.0,15.0,90,0.00,,,0.01,0,Wunderground v.1.15,2013-03-13 03:47:00,
2013-03-12 23:52:00,33.3,31.0,30.05,West,259,5.0,12.0,91,0.00,,,0.01,0,Wunderground v.1.15,2013-03-13 03:52:00,
2013-03-12 23:57:00,33.1,30.8,30.05,WSW,254,5.0,12.0,91,0.00,,,0.01,0,Wunderground v.1.15,2013-03-13 03:57:00,